[[{"header":{"parameterUnit":"m.s-1","parameterCategory":1,"la1":30.2991,"la2":30.254,"lo1":-89.0895,"lo2":-89.0444,"dy":0.0017,"dx":0.0017,"nx":28,"ny":28,"refTime":"2024-05-18T03:00:00:Z","depth":0,"parameterNumber":2,"parameterNumberName":"U-component_of_WINDS"},"data":[0,0,0,0,0,0,0,0,0,0,0,0,0,0,0,0,0,0,0,0,0,0,0,0,0,0,0,0,0,0,0,0,0,0,0,0,0,0,0,0,0,0,0,0,0,0,0,0,0,0,0,0,0,0,0,0,0,0,1.7946,1.7946,0,1.8033,1.8034,1.8035,1.8025,1.8024,1.8022,1.8021,1.8117,1.812,1.8124,0,0,0,0,0,0,0,0,0,0,0,0,0,1.7775,1.7778,1.7945,1.7947,1.7948,1.8033,1.8034,1.8035,1.8025,1.8023,1.8022,1.802,1.8115,1.812,1.8124,0,0,0,0,0,0,0,0,0,0,0,0,0,1.7855,1.7779,1.7945,1.7953,1.7954,1.8033,1.8034,1.8036,1.8026,1.8023,1.8021,1.8019,1.8114,1.8119,1.8125,1.8204,0,0,1.8143,1.8145,0,0,0,0,0,0,0,0,1.785,1.7861,1.7951,1.7952,1.7954,1.8016,1.8009,1.8092,1.8026,1.7999,1.8021,1.8018,1.8085,1.8093,1.8114,1.8208,1.8212,1.8143,1.8147,1.8149,1.8151,0,0,0,0,0,0,0,1.7845,1.7857,1.798,1.7952,1.7954,1.7954,1.7962,1.8025,1.8053,1.8001,1.8,1.8011,1.8086,1.8109,1.8117,1.8214,1.8143,1.8148,1.8152,1.8154,1.8377,1.838,0,0,0,0,0,0,1.7837,1.7853,1.7977,1.7983,1.7896,1.7958,1.7968,1.7998,1.8052,1.8058,1.8012,1.801,1.81,1.811,1.812,1.8217,1.8149,1.8155,1.8158,1.8375,1.8378,1.838,0,0,0,0,0,0,1.7833,1.7848,1.7974,1.7918,1.7934,1.7963,1.7997,1.8001,1.8024,1.8061,1.8066,1.803,1.8099,1.8112,1.8183,1.822,1.8157,1.8163,1.8372,1.8376,1.8379,1.8409,0,0,0,0,0,0,1.7828,1.7846,1.7875,1.7918,1.7937,1.8034,1.7999,1.8004,1.8033,1.8031,1.8079,1.8085,1.8098,1.8174,1.8188,1.8227,1.8167,1.8369,1.8374,1.8378,1.8405,1.8414,1.8421,0,0,0,0,0,1.7822,1.7881,1.7877,1.7892,1.7973,1.8036,1.8046,1.8058,1.8036,1.8067,1.809,1.8084,1.8213,1.8181,1.8198,1.8238,1.8367,1.8372,1.8378,1.8402,1.8412,1.8421,0,0,0,0,0,0,1.7844,1.7887,1.7883,1.7957,1.7993,1.8034,1.8072,1.8069,1.8113,1.8109,1.8123,1.8134,1.8206,1.8229,1.8193,1.8317,1.8287,1.8296,1.83,1.831,1.8318,1.8312,1.8172,0,0,0,0,0,1.7857,1.7903,1.7939,1.8001,1.8019,1.8043,1.807,1.8076,1.8114,1.813,1.8159,1.8198,1.8247,1.8279,1.8327,1.8408,1.8419,1.8444,1.8451,1.8458,1.8466,1.8512,1.8524,1.8398,1.8398,1.8398,0,0,1.7886,1.7915,1.7944,1.8007,1.8035,1.8084,1.8055,1.8108,1.8145,1.8139,1.8207,1.8229,1.8274,1.8351,1.8386,1.8372,1.8503,1.8465,1.8469,1.8474,1.8519,1.8531,1.8541,1.8402,1.8402,1.8401,0,0,1.7964,1.7989,1.8045,1.8073,1.8115,1.813,1.8143,1.8185,1.8199,1.8267,1.8264,1.8309,1.8393,1.8425,1.8453,1.8541,1.8538,1.8557,1.8598,1.8643,1.8653,1.8662,1.8695,1.8707,1.8564,1.8564,1.8564,0,1.7995,1.8066,1.8074,1.8127,1.8156,1.815,1.8207,1.8235,1.8291,1.8312,1.8295,1.8401,1.843,1.8515,1.8536,1.8558,1.8576,1.8552,1.865,1.8659,1.8668,1.87,1.8712,1.8566,1.8566,1.8566,1.8566,0,1.8103,1.8153,1.8193,1.8245,1.8278,1.8333,1.8351,1.8384,1.8387,1.8404,1.8475,1.851,1.8564,1.8584,1.8588,1.867,1.866,1.8646,1.8617,1.8682,1.8712,1.8724,1.857,1.8569,1.8568,1.8568,0,0,1.8199,1.8254,1.8269,1.8293,1.8338,1.8378,1.8433,1.8485,1.8513,1.8552,1.8601,1.8671,1.8659,1.869,1.8697,1.8736,1.8806,1.8718,1.8719,1.8735,1.8901,1.8912,1.8926,1.8803,1.8805,1.8807,1.8897,0,1.8283,1.8378,1.8387,1.8474,1.8521,1.8515,1.8564,1.8598,1.8615,1.8659,1.8679,1.873,1.8709,1.8728,1.8765,1.879,1.884,1.8783,1.8851,1.8853,1.8841,1.8942,1.8954,1.9038,1.8909,1.8911,1.8913,0,1.8393,1.8433,1.8524,1.8563,1.8583,1.8626,1.8675,1.8716,1.8755,1.8765,1.8799,1.8801,1.886,1.8826,1.8909,1.887,1.8898,1.8914,1.8918,1.8926,1.8888,1.8955,1.9064,1.9078,1.8931,1.893,1.8928,0,1.8456,1.8533,1.8597,1.8618,1.8665,1.8695,1.8717,1.8753,1.8784,1.8827,1.8847,1.8896,1.8924,1.8963,1.8979,1.8953,1.9062,1.9029,1.9074,1.9074,1.9099,1.9098,1.9217,1.9114,1.9114,1.9113,1.9113,0,1.855,1.8606,1.8626,1.8667,1.873,1.874,1.8803,1.8823,1.8856,1.8901,1.8899,1.8942,1.896,1.9006,1.9019,1.9087,1.9099,1.911,1.9114,1.9112,1.9111,1.9132,1.9127,1.9117,1.9116,1.9115,1.9115,0,1.8632,1.8648,1.8718,1.8755,1.8766,1.8812,1.8845,1.8885,1.8901,1.8958,1.8972,1.8999,1.9053,1.9072,1.9139,1.9148,1.9227,1.9224,1.9213,1.9214,1.9259,1.9255,1.9397,1.9417,1.9299,1.93,1.9301,0,1.8692,1.8735,1.8777,1.8806,1.8828,1.8875,1.8905,1.8916,1.8949,1.8996,1.9031,1.9084,1.9128,1.9215,1.9242,1.9293,1.9293,1.9339,1.9301,1.9298,1.9296,1.9294,1.9299,1.9347,1.9348,1.9349,1.935,0,1.8797,1.8802,1.8845,1.8891,1.8927,1.8964,1.9,1.9025,1.9042,1.9078,1.9133,1.9166,1.9233,1.9287,1.9339,1.9363,1.9361,1.9361,1.9375,1.9375,1.9367,1.9374,1.9235,1.9359,1.9358,1.9357,1.9357,1.9356,1.8871,1.891,1.8945,1.8993,1.9021,1.9054,1.9093,1.9113,1.9158,1.9212,1.9216,1.9276,1.9315,1.9384,1.941,1.9458,1.9446,1.9465,1.947,1.9475,1.9479,1.9357,1.9468,1.9467,1.9467,1.9467,1.9467,0,1.8978,1.9,1.9044,1.9093,1.9131,1.9122,1.9161,1.9195,1.9246,1.9281,1.9324,1.9387,1.9439,1.9469,1.9521,1.9554,1.9554,1.9568,1.9566,1.9572,1.9487,1.947,1.9567,1.9566,1.9566,1.9566,1.9566,1.9566,1.9038,1.9102,1.9112,1.919,1.9212,1.9269,1.9292,1.9324,1.9352,1.9422,1.9464,1.9482,1.9516,1.9571,1.9619,1.9626,1.9647,1.9662,1.9669,1.9588,1.9578,1.9569,1.9554,1.9666,1.9666,1.9751,1.9751,1.9752]},{"header":{"parameterUnit":"m.s-1","parameterCategory":1,"la1":30.2991,"la2":30.254,"lo1":-89.0895,"lo2":-89.0444,"dy":0.0017,"dx":0.0017,"nx":28,"ny":28,"refTime":"2024-05-18T03:00:00:Z","depth":0,"parameterNumber":3,"parameterNumberName":"V-component_of_WINDS"},"data":[0,0,0,0,0,0,0,0,0,0,0,0,0,0,0,0,0,0,0,0,0,0,0,0,0,0,0,0,0,0,0,0,0,0,0,0,0,0,0,0,0,0,0,0,0,0,0,0,0,0,0,0,0,0,0,0,0,0,-1.3061,-1.3063,0,-1.3209,-1.3211,-1.3212,-1.3291,-1.3291,-1.3291,-1.3291,-1.3445,-1.3449,-1.3453,0,0,0,0,0,0,0,0,0,0,0,0,0,-1.2851,-1.2855,-1.3061,-1.3063,-1.3065,-1.3209,-1.3211,-1.3213,-1.3291,-1.3291,-1.3291,-1.3291,-1.3444,-1.3449,-1.3454,0,0,0,0,0,0,0,0,0,0,0,0,0,-1.2965,-1.2856,-1.3061,-1.3121,-1.3128,-1.3208,-1.3211,-1.3213,-1.3291,-1.3291,-1.3291,-1.3291,-1.3443,-1.3448,-1.3454,-1.3487,0,0,-1.3473,-1.3475,0,0,0,0,0,0,0,0,-1.2959,-1.2973,-1.311,-1.3117,-1.3125,-1.3232,-1.3194,-1.3305,-1.3291,-1.3229,-1.3291,-1.3291,-1.3374,-1.3386,-1.3413,-1.3495,-1.3501,-1.3473,-1.3477,-1.3479,-1.3481,0,0,0,0,0,0,0,-1.2951,-1.2967,-1.312,-1.3112,-1.3121,-1.3142,-1.3159,-1.3215,-1.3299,-1.3234,-1.324,-1.3257,-1.3378,-1.3407,-1.3418,-1.3503,-1.3473,-1.3478,-1.3482,-1.3484,-1.3622,-1.3622,0,0,0,0,0,0,-1.2932,-1.296,-1.3115,-1.3124,-1.304,-1.3146,-1.3164,-1.3197,-1.3298,-1.3314,-1.3256,-1.326,-1.3397,-1.341,-1.3423,-1.347,-1.3479,-1.3485,-1.3488,-1.3622,-1.3622,-1.3622,0,0,0,0,0,0,-1.2928,-1.2946,-1.3109,-1.3044,-1.3066,-1.3149,-1.3186,-1.32,-1.3229,-1.3315,-1.3331,-1.327,-1.3398,-1.3415,-1.3471,-1.3476,-1.3488,-1.3493,-1.3621,-1.3622,-1.3622,-1.3562,0,0,0,0,0,0,-1.2921,-1.2943,-1.2955,-1.3043,-1.3069,-1.3153,-1.3186,-1.3203,-1.3239,-1.3245,-1.3332,-1.3347,-1.3399,-1.3462,-1.3477,-1.3485,-1.3498,-1.3621,-1.3621,-1.3622,-1.3564,-1.356,-1.3556,0,0,0,0,0,-1.2913,-1.2933,-1.2956,-1.2974,-1.3086,-1.3153,-1.3168,-1.3227,-1.3239,-1.3253,-1.3308,-1.3344,-1.3473,-1.3467,-1.3485,-1.3494,-1.3621,-1.3621,-1.3622,-1.3565,-1.356,-1.3557,0,0,0,0,0,0,-1.2844,-1.2946,-1.2972,-1.302,-1.3077,-1.3166,-1.3185,-1.322,-1.3276,-1.3279,-1.3351,-1.337,-1.342,-1.3463,-1.3454,-1.3533,-1.3551,-1.3555,-1.3502,-1.3498,-1.3495,-1.3483,-1.3503,0,0,0,0,0,-1.2834,-1.2879,-1.2966,-1.3,-1.3028,-1.3101,-1.3133,-1.3173,-1.3236,-1.326,-1.332,-1.338,-1.3435,-1.3469,-1.3524,-1.3571,-1.3592,-1.3586,-1.3582,-1.3579,-1.3581,-1.3611,-1.361,-1.3622,-1.3622,-1.3622,0,0,-1.2815,-1.2876,-1.29,-1.2988,-1.3037,-1.3083,-1.3121,-1.3168,-1.3203,-1.3268,-1.3324,-1.3371,-1.3443,-1.3495,-1.3521,-1.3532,-1.3583,-1.3579,-1.3576,-1.358,-1.3611,-1.361,-1.3609,-1.3622,-1.3622,-1.3622,0,0,-1.2803,-1.2853,-1.2887,-1.2936,-1.301,-1.3059,-1.3067,-1.3151,-1.3184,-1.3242,-1.3292,-1.3336,-1.3428,-1.3478,-1.3515,-1.3524,-1.3559,-1.354,-1.3521,-1.3549,-1.3548,-1.3547,-1.3551,-1.3552,-1.3542,-1.3542,-1.3542,0,-1.2769,-1.2839,-1.2901,-1.2945,-1.2983,-1.3044,-1.308,-1.3125,-1.3213,-1.3239,-1.325,-1.3368,-1.3421,-1.3486,-1.3488,-1.3516,-1.3529,-1.353,-1.3543,-1.3543,-1.3543,-1.3548,-1.3549,-1.3539,-1.3539,-1.3539,-1.354,0,-1.2795,-1.2843,-1.2862,-1.2945,-1.2986,-1.3026,-1.3095,-1.3129,-1.3167,-1.3215,-1.3275,-1.334,-1.341,-1.3429,-1.3466,-1.35,-1.3505,-1.3529,-1.3549,-1.3538,-1.3544,-1.3546,-1.3535,-1.3536,-1.3537,-1.3537,0,0,-1.2741,-1.2859,-1.2865,-1.2904,-1.2991,-1.303,-1.3074,-1.3141,-1.3169,-1.3229,-1.3269,-1.3346,-1.3369,-1.3411,-1.3455,-1.3479,-1.3484,-1.3501,-1.3504,-1.3496,-1.3526,-1.3508,-1.3508,-1.3508,-1.3509,-1.3509,-1.352,0,-1.2742,-1.2821,-1.2879,-1.2938,-1.2984,-1.3043,-1.3082,-1.314,-1.3187,-1.3235,-1.3288,-1.3341,-1.3367,-1.3393,-1.342,-1.3477,-1.3491,-1.3477,-1.3547,-1.3548,-1.3526,-1.3511,-1.3491,-1.3499,-1.3523,-1.3523,-1.3524,0,-1.2752,-1.2808,-1.2871,-1.2954,-1.2976,-1.3009,-1.3077,-1.3121,-1.3189,-1.3222,-1.327,-1.3315,-1.3366,-1.3382,-1.3454,-1.3444,-1.3476,-1.3509,-1.3511,-1.3519,-1.3535,-1.352,-1.3502,-1.3503,-1.3528,-1.3527,-1.3527,0,-1.2706,-1.2799,-1.2849,-1.288,-1.2978,-1.3001,-1.3043,-1.3112,-1.3149,-1.3209,-1.3234,-1.3299,-1.3335,-1.3385,-1.3448,-1.3454,-1.3514,-1.3535,-1.3544,-1.3542,-1.3553,-1.3552,-1.3541,-1.3574,-1.3574,-1.3574,-1.3574,0,-1.27,-1.2736,-1.283,-1.286,-1.2903,-1.2971,-1.3012,-1.306,-1.3121,-1.3163,-1.3219,-1.3258,-1.3338,-1.3387,-1.3437,-1.349,-1.3505,-1.3534,-1.3547,-1.3529,-1.3525,-1.3551,-1.3552,-1.3574,-1.3574,-1.3574,-1.3574,0,-1.2656,-1.272,-1.2778,-1.2867,-1.289,-1.2918,-1.2995,-1.3028,-1.3079,-1.3132,-1.3148,-1.3229,-1.329,-1.3357,-1.3441,-1.3474,-1.3525,-1.3543,-1.3501,-1.3508,-1.3513,-1.3512,-1.3518,-1.3523,-1.3552,-1.3552,-1.3552,0,-1.2647,-1.2676,-1.2768,-1.28,-1.2841,-1.2891,-1.293,-1.2999,-1.3037,-1.3118,-1.3142,-1.3207,-1.3263,-1.3358,-1.3425,-1.349,-1.351,-1.3508,-1.352,-1.3502,-1.3511,-1.3508,-1.3512,-1.3504,-1.3503,-1.3503,-1.3502,0,-1.2625,-1.2655,-1.2708,-1.2773,-1.2817,-1.2871,-1.2928,-1.2952,-1.3033,-1.3073,-1.3136,-1.3179,-1.3265,-1.3329,-1.3403,-1.3449,-1.3489,-1.3498,-1.3504,-1.3485,-1.346,-1.3474,-1.3491,-1.3497,-1.3498,-1.3498,-1.3498,-1.3499,-1.2598,-1.2627,-1.2697,-1.2755,-1.2805,-1.2857,-1.2893,-1.2948,-1.3001,-1.3076,-1.3114,-1.3177,-1.3248,-1.335,-1.3395,-1.3446,-1.3459,-1.3467,-1.3469,-1.347,-1.3465,-1.3452,-1.346,-1.346,-1.3461,-1.3461,-1.3461,0,-1.2579,-1.2627,-1.2679,-1.2757,-1.2803,-1.2837,-1.2902,-1.2939,-1.2993,-1.3055,-1.3109,-1.3182,-1.3246,-1.3318,-1.3387,-1.3414,-1.3434,-1.343,-1.3428,-1.3438,-1.345,-1.3438,-1.3412,-1.3412,-1.3412,-1.3412,-1.3412,-1.3412,-1.2574,-1.2625,-1.2665,-1.2743,-1.2792,-1.2852,-1.2887,-1.2936,-1.2986,-1.3065,-1.3118,-1.3165,-1.3232,-1.3306,-1.3367,-1.3387,-1.3409,-1.3399,-1.3424,-1.3433,-1.3437,-1.3441,-1.3431,-1.3403,-1.3403,-1.3409,-1.3409,-1.3409]}]]